Location: Grand Lay
(47.3253°N, 0.9468°E)
Time: 15:23:39
(UTC+00:00)

Nadezhda 3 Rocket - Pass Details

Date: 18 January 2026
Orbit: 956 x 998 km, 82.9° (Epoch: 10 February)

Event Time Altitude Azimuth Distance (km) Brightness Sun altitude
Rises 05:28:54 0° 350° (N) 3,678 6.8 -21.2°
Reaches altitude 10° 05:31:24 10° 349° (N) 2,732 6.2 -20.8°
Maximum altitude 05:37:40 80° 265° (W) 1,003 3.9 -19.7°
Drops below altitude 10° 05:43:57 10° 179° (S) 2,742 6.5 -18.7°
Sets 05:46:28 0° 178° (S) 3,691 7.2 -18.3°
